Date String (YYYY-MM-DD hh:mm:ss) UTC,Instrument flags,Ambient pressure (hPa),Sample flow (lpm),Bypass flow (lpm),Sample temperature (°C),Ambient temperature (°C),ASC tube jacket temperature (°C),LED temperature (°C),Box temperature (°C),Sample RH (%),Span deviation,Mass concentration (μg/m³),Mass concentration (μg/m³),Mass concentration (μg/m³)
DateTimeUTC,F1_M11,P_M11,Q1_M11,Q2_M11,T1_M11,T2_M11,T3_M11,T4_M11,T5_M11,U1_M11,ZSPAN_M11,X0_M11,X2_M11,X1_M11
2022-04-22 10:00:00,,0817.1,5.01,0.00,30.1,29.2,00.0,39.1,31.8,13.0,0002.1,0030.69,0010.00,0006.22
2022-04-22 10:01:00,,0817.2,4.98,0.00,30.1,29.2,00.0,39.1,31.8,12.5,0002.3,0030.93,0010.11,0006.27
2022-04-22 10:02:00,,0817.1,5.01,0.00,30.1,29.2,00.0,39.1,31.8,12.3,0002.5,0031.03,0010.26,0006.33
2022-04-22 10:03:00,,0817.2,4.99,0.00,30.1,29.2,00.0,39.1,31.8,12.1,0003.1,0030.87,0010.27,0006.37
2022-04-22 10:04:00,,0817.2,4.99,0.00,30.1,29.1,00.0,39.1,31.8,12.3,0003.4,0030.94,0010.34,0006.40
2022-04-22 10:05:00,,0817.1,5.01,0.00,30.1,29.1,00.0,39.1,31.8,12.1,0003.3,0030.80,0010.36,0006.42
2022-04-22 10:06:00,,0817.2,5.00,0.00,30.1,29.1,00.0,39.1,31.8,10.4,0003.1,0029.33,0010.26,0006.39
2022-04-22 10:07:00,,0817.2,5.00,0.00,30.1,29.1,00.0,39.1,31.8,09.5,0002.8,0028.94,0010.06,0006.27
2022-04-22 10:08:00,,0817.2,5.01,0.00,30.1,29.1,00.0,39.1,31.8,09.3,0002.5,0028.25,0009.76,0006.13
2022-04-22 10:09:00,,0817.2,4.99,0.00,30.1,29.1,00.0,39.1,31.8,08.5,0002.3,0027.69,0009.47,0005.97
2022-04-22 10:10:00,,0817.2,4.98,0.00,30.1,29.1,00.0,39.1,31.7,08.3,0001.4,0025.32,0009.15,0005.78
2022-04-22 10:11:00,,0817.2,5.02,0.00,30.1,29.0,00.0,39.1,31.7,08.4,0000.0,0023.63,0008.84,0005.59
2022-04-22 10:12:00,,0817.1,4.99,0.00,30.1,29.0,00.0,39.1,31.8,08.3,0000.6,0023.40,0008.59,0005.44
2022-04-22 10:13:00,,0817.1,5.01,0.00,30.1,29.0,00.0,39.1,31.8,08.6,0003.8,0022.76,0008.28,0005.28
2022-04-22 10:14:00,,0817.2,5.02,0.00,30.1,29.0,00.0,39.1,31.7,08.3,0004.6,0021.97,0008.03,0005.12
2022-04-22 10:15:00,,0817.2,4.99,0.00,30.1,29.1,00.0,39.1,31.8,08.6,0000.4,0020.39,0007.70,0004.96
2022-04-22 10:16:00,,0817.2,5.00,0.00,30.1,29.1,00.0,39.1,31.8,09.7,0001.7,0019.66,0007.48,0004.86
2022-04-22 10:17:00,,0817.4,5.00,0.00,30.1,29.1,00.0,39.1,31.8,08.6,0000.0,0019.32,0007.33,0004.78
2022-04-22 10:18:00,,0817.3,4.99,0.00,30.1,29.1,00.0,39.1,31.8,08.5,0000.3,0019.14,0007.29,0004.75
2022-04-22 10:19:00,,0817.3,5.02,0.00,30.1,29.1,00.0,39.1,31.7,08.4,0004.2,0019.40,0007.27,0004.70
2022-04-22 10:20:00,,0817.3,5.00,0.00,30.1,29.0,00.0,39.1,31.7,08.2,0004.5,0018.79,0007.24,0004.66
2022-04-22 10:21:00,,0817.3,4.99,0.00,30.1,29.0,00.0,39.1,31.8,08.2,0004.3,0018.59,0007.20,0004.62
2022-04-22 10:22:00,,0817.3,5.01,0.00,30.0,29.0,00.0,39.0,31.7,08.2,0004.4,0018.34,0007.12,0004.59
2022-04-22 10:23:00,,0817.4,4.99,0.00,30.0,29.0,00.0,39.0,31.7,08.1,0004.6,0017.63,0006.97,0004.54
2022-04-22 10:24:00,,0817.3,4.99,0.00,30.0,28.9,00.0,39.0,31.7,08.3,0001.7,0016.58,0006.86,0004.47
2022-04-22 10:25:00,,0817.3,5.01,0.00,30.0,28.9,00.0,39.0,31.7,08.1,0000.0,0016.29,0006.77,0004.40
2022-04-22 10:26:00,,0817.3,5.00,0.00,30.0,28.9,00.0,39.0,31.7,08.1,0000.0,0016.17,0006.68,0004.35
2022-04-22 10:27:00,,0817.2,4.99,0.00,30.0,28.9,00.0,39.0,31.7,08.1,0000.0,0015.71,0006.54,0004.25
2022-04-22 10:28:00,,0817.2,5.01,0.00,30.0,28.9,00.0,39.0,31.7,08.1,0000.0,0015.62,0006.44,0004.16
2022-04-22 10:29:00,,0817.2,5.01,0.00,30.0,28.9,00.0,39.0,31.7,08.5,0000.0,0016.29,0006.43,0004.11
2022-04-22 10:30:00,,0817.2,4.99,0.00,30.0,28.9,00.0,39.0,31.7,09.6,0000.0,0016.57,0006.47,0004.13
2022-04-22 10:31:00,,0817.2,4.99,0.00,30.0,28.9,00.0,39.0,31.7,09.0,0000.0,0017.49,0006.53,0004.15
2022-04-22 10:32:00,,0817.2,5.02,0.00,30.0,29.0,00.0,39.0,31.7,09.2,0000.0,0018.29,0006.57,0004.20
2022-04-22 10:33:00,,0817.2,4.99,0.00,30.0,29.0,00.0,39.0,31.7,09.3,0000.0,0018.93,0006.64,0004.24
2022-04-22 10:34:00,,0817.2,5.00,0.00,30.0,29.0,00.0,39.0,31.7,08.8,0000.0,0019.21,0006.83,0004.30
2022-04-22 10:35:00,,0817.2,4.99,0.00,30.0,28.9,00.0,39.0,31.7,08.5,0000.0,0019.43,0006.91,0004.34
2022-04-22 10:36:00,,0817.2,5.01,0.00,30.0,28.9,00.0,39.0,31.6,08.4,0000.0,0019.34,0006.95,0004.38
2022-04-22 10:37:00,,0817.2,5.00,0.00,30.0,28.9,00.0,39.0,31.6,08.3,0000.0,0019.24,0007.02,0004.40
2022-04-22 10:38:00,,0817.2,4.98,0.00,30.0,28.9,00.0,39.0,31.6,08.3,0000.0,0019.90,0007.03,0004.42
2022-04-22 10:39:00,,0817.2,5.02,0.00,29.9,28.9,00.0,39.0,31.6,08.3,0000.0,0021.01,0007.00,0004.43
2022-04-22 10:40:00,,0817.1,5.01,0.00,29.9,28.9,00.0,38.9,31.6,08.2,0000.0,0020.50,0006.92,0004.43
2022-04-22 10:41:00,,0817.1,4.98,0.00,29.9,28.9,00.0,38.9,31.6,08.2,0000.0,0019.59,0006.80,0004.38
2022-04-22 10:42:00,,0817.1,5.01,0.00,29.9,28.9,00.0,38.9,31.5,08.2,0000.0,0018.71,0006.71,0004.34
2022-04-22 10:43:00,,0817.1,4.98,0.00,29.9,28.9,00.0,38.9,31.5,08.3,0000.0,0017.59,0006.62,0004.28
2022-04-22 10:44:00,,0817.1,5.00,0.00,29.9,28.9,00.0,38.9,31.6,08.4,0000.0,0016.54,0006.54,0004.23
2022-04-22 10:45:00,,0817.2,5.01,0.00,29.9,28.9,00.0,38.9,31.6,08.4,0000.0,0016.16,0006.44,0004.18
2022-04-22 10:46:00,,0817.1,4.98,0.00,29.9,28.9,00.0,38.9,31.6,08.4,0000.0,0016.29,0006.48,0004.17
2022-04-22 10:47:00,,0817.1,5.00,0.00,29.9,28.9,00.0,38.9,31.6,08.4,0000.0,0017.37,0006.52,0004.16
2022-04-22 10:48:00,,0817.2,5.01,0.00,29.9,28.8,00.0,38.9,31.6,08.4,0000.0,0017.95,0006.53,0004.17
2022-04-22 10:49:00,,0817.2,5.00,0.00,29.9,28.8,00.0,38.9,31.5,08.4,0000.0,0017.84,0006.57,0004.18
2022-04-22 10:50:00,,0817.1,4.99,0.00,29.9,28.8,00.0,38.9,31.5,08.4,0000.0,0016.88,0006.65,0004.20
2022-04-22 10:51:00,,0817.1,5.02,0.00,29.8,28.8,00.0,38.9,31.5,08.3,0000.0,0016.88,0006.69,0004.20
2022-04-22 10:52:00,,0817.1,4.98,0.00,29.8,28.8,00.0,38.9,31.5,08.2,0000.0,0016.78,0006.70,0004.19
2022-04-22 10:53:00,,0817.1,5.01,0.00,29.8,28.8,00.0,38.9,31.5,08.0,0000.0,0016.43,0006.56,0004.13
2022-04-22 10:54:00,,0817.0,5.00,0.00,29.8,28.8,00.0,38.9,31.5,08.0,0000.0,0016.18,0006.45,0004.08
2022-04-22 10:55:00,,0817.1,5.00,0.00,29.8,28.8,00.0,38.8,31.4,08.1,0000.0,0016.14,0006.36,0004.02
2022-04-22 10:56:00,,0817.1,5.02,0.00,29.8,28.8,00.0,38.8,31.5,08.1,0000.0,0016.34,0006.29,0003.97
2022-04-22 10:57:00,,0817.0,5.00,0.00,29.8,28.8,00.0,38.8,31.5,08.0,0000.0,0016.49,0006.15,0003.89
2022-04-22 10:58:00,,0817.1,4.99,0.00,29.8,28.8,00.0,38.8,31.5,08.0,0000.0,0015.65,0006.00,0003.83
2022-04-22 10:59:00,,0817.1,5.00,0.00,29.8,28.7,00.0,38.8,31.4,08.1,0000.0,0014.58,0005.85,0003.76
